"Sample Date","Sample Time","Sample Value","Units","Flow Rate","Sample Interval","Number Channels","Micron Size 0","Counts/Channel 0","Micron Size 1","Counts/Channel 1","Micron Size 2","Counts/Channel 2","Micron Size 3","Counts/Channel 3","Micron Size 4","Counts/Channel 4","Micron Size 5","Counts/Channel 5","Micron Size 6","Counts/Channel 6","Micron Size 7","Counts/Channel 7","Micron Size 8","Counts/Channel 8","Micron Size 9","Counts/Channel 9","Micron Size 10","Counts/Channel 10","Micron Size 11","Counts/Channel 11","Micron Size 12","Counts/Channel 12","Micron Size 13","Counts/Channel 13","Micron Size 14","Counts/Channel 14","Micron Size 15","Counts/Channel 15","Micron Size 16","Counts/Channel 16","Micron Size 17","Counts/Channel 17","Micron Size 18","Counts/Channel 18","Micron Size 19","Counts/Channel 19","Micron Size 20","Counts/Channel 20","Micron Size 21","Counts/Channel 21","Micron Size 22","Counts/Channel 22","Micron Size 23","Counts/Channel 23","Micron Size 24","Counts/Channel 24","Micron Size 25","Counts/Channel 25","Micron Size 26","Counts/Channel 26","Micron Size 27","Counts/Channel 27","Micron Size 28","Counts/Channel 28","Micron Size 29","Counts/Channel 29","Micron Size 30","Counts/Channel 30","Micron Size 31","Counts/Channel 31"
"03/06/08","06:00:02",35037.000,"cc",28317.709,6.00,6,0.100,28878.000,0.200,4104.000,0.300,988.000,0.500,824.000,1.000,243.000,5.000,0
"03/06/08","06:00:08",34928.000,"cc",28281.588,6.00,6,0.100,28835.000,0.200,4126.000,0.300,943.000,0.500,819.000,1.000,205.000,5.000,0
"03/06/08","06:00:14",35185.000,"cc",28384.498,6.00,6,0.100,28932.000,0.200,4148.000,0.300,1050.000,0.500,827.000,1.000,228.000,5.000,0
"03/06/08","06:00:20",35039.000,"cc",28315.818,6.00,6,0.100,29062.000,0.200,4018.000,0.300,973.000,0.500,775.000,1.000,211.000,5.000,0
"03/06/08","06:00:26",34775.000,"cc",28306.678,6.00,6,0.100,28687.000,0.200,4066.000,0.300,995.000,0.500,823.000,1.000,204.000,5.000,0
"03/06/08","06:00:32",34905.000,"cc",28324.811,6.00,6,0.100,28884.000,0.200,4024.000,0.300,962.000,0.500,803.000,1.000,232.000,5.000,0
"03/06/08","06:00:38",34651.000,"cc",28358.475,6.00,6,0.100,28799.000,0.200,3925.000,0.300,911.000,0.500,786.000,1.000,230.000,5.000,0
"03/06/08","06:00:44",34635.000,"cc",28281.969,6.00,6,0.100,28768.000,0.200,3938.000,0.300,942.000,0.500,777.000,1.000,210.000,5.000,0
"03/06/08","06:00:50",34450.000,"cc",28276.156,6.00,6,0.100,28601.000,0.200,3958.000,0.300,899.000,0.500,782.000,1.000,210.000,5.000,0
"03/06/08","06:00:56",35019.000,"cc",28331.143,6.00,6,0.100,28767.000,0.200,4241.000,0.300,999.000,0.500,783.000,1.000,229.000,5.000,0
"03/06/08","06:01:02",34984.000,"cc",28282.338,6.00,6,0.100,29029.000,0.200,4013.000,0.300,983.000,0.500,734.000,1.000,225.000,5.000,0
"03/06/08","06:01:08",35102.000,"cc",28360.641,6.00,6,0.100,29180.000,0.200,4040.000,0.300,901.000,0.500,770.000,1.000,211.000,5.000,0
"03/06/08","06:01:14",35166.000,"cc",28273.072,6.00,6,0.100,29203.000,0.200,4114.000,0.300,936.000,0.500,744.000,1.000,169.000,5.000,0
"03/06/08","06:01:20",34890.000,"cc",28272.320,6.00,6,0.100,29015.000,0.200,4054.000,0.300,885.000,0.500,737.000,1.000,199.000,5.000,0
"03/06/08","06:01:26",34547.000,"cc",28366.861,6.00,6,0.100,28832.000,0.200,4060.000,0.300,821.000,0.500,683.000,1.000,151.000,5.000,0
"03/06/08","06:01:32",34878.000,"cc",28316.732,6.00,6,0.100,29048.000,0.200,4081.000,0.300,908.000,0.500,684.000,1.000,157.000,5.000,0
"03/06/08","06:01:38",34742.000,"cc",28351.986,6.00,6,0.100,28976.000,0.200,3954.000,0.300,891.000,0.500,725.000,1.000,196.000,5.000,0
"03/06/08","06:01:44",34711.000,"cc",28286.947,6.00,6,0.100,28888.000,0.200,4060.000,0.300,928.000,0.500,689.000,1.000,146.000,5.000,0
"03/06/08","06:01:50",34811.000,"cc",28328.080,6.00,6,0.100,28905.000,0.200,4010.000,0.300,949.000,0.500,745.000,1.000,202.000,5.000,0
"03/06/08","06:01:56",34896.000,"cc",28340.434,6.00,6,0.100,29076.000,0.200,4089.000,0.300,903.000,0.500,663.000,1.000,165.000,5.000,0
"03/06/08","06:02:02",34897.000,"cc",28377.754,6.00,6,0.100,28963.000,0.200,4151.000,0.300,976.000,0.500,657.000,1.000,150.000,5.000,0
"03/06/08","06:02:08",34833.000,"cc",28333.404,6.00,6,0.100,28998.000,0.200,4144.000,0.300,893.000,0.500,661.000,1.000,137.000,5.000,0
"03/06/08","06:02:14",34851.000,"cc",28251.824,6.00,6,0.100,29016.000,0.200,4129.000,0.300,903.000,0.500,651.000,1.000,152.000,5.000,0
"03/06/08","06:02:20",34617.000,"cc",28259.190,6.00,6,0.100,28877.000,0.200,4097.000,0.300,915.000,0.500,598.000,1.000,130.000,5.000,0
"03/06/08","06:02:26",39921.000,"cc",28323.525,6.00,6,0.100,31876.000,0.200,5333.000,0.300,1546.000,0.500,980.000,1.000,186.000,5.000,0
"03/06/08","06:02:32",37414.000,"cc",28349.148,6.00,6,0.100,30451.000,0.200,4801.000,0.300,1215.000,0.500,792.000,1.000,155.000,5.000,0
"03/06/08","06:02:38",35642.000,"cc",28325.029,6.00,6,0.100,29668.000,0.200,4269.000,0.300,918.000,0.500,650.000,1.000,137.000,5.000,0
"03/06/08","06:02:44",35155.000,"cc",28277.615,6.00,6,0.100,29370.000,0.200,4219.000,0.300,886.000,0.500,582.000,1.000,98.000,5.000,0
"03/06/08","06:02:50",34772.000,"cc",28351.563,6.00,6,0.100,28902.000,0.200,4175.000,0.300,952.000,0.500,639.000,1.000,104.000,5.000,0
"03/06/08","06:02:56",34882.000,"cc",28278.787,6.00,6,0.100,29074.000,0.200,4093.000,0.300,937.000,0.500,653.000,1.000,125.000,5.000,0
"03/06/08","06:03:02",35035.000,"cc",28403.543,6.00,6,0.100,29246.000,0.200,4141.000,0.300,864.000,0.500,668.000,1.000,116.000,5.000,0
"03/06/08","06:03:08",34737.000,"cc",28350.922,6.00,6,0.100,29047.000,0.200,4163.000,0.300,843.000,0.500,590.000,1.000,94.000,5.000,0
"03/06/08","06:03:14",35087.000,"cc",28242.127,6.00,6,0.100,29342.000,0.200,4169.000,0.300,858.000,0.500,627.000,1.000,91.000,5.000,0
"03/06/08","06:03:20",35221.000,"cc",28277.641,6.00,6,0.100,29366.000,0.200,4246.000,0.300,870.000,0.500,644.000,1.000,95.000,5.000,0
"03/06/08","06:03:26",34947.000,"cc",28310.914,6.00,6,0.100,29310.000,0.200,4097.000,0.300,849.000,0.500,593.000,1.000,98.000,5.000,0
"03/06/08","06:03:32",34699.000,"cc",28321.051,6.00,6,0.100,28854.000,0.200,4277.000,0.300,884.000,0.500,588.000,1.000,96.000,5.000,0
"03/06/08","06:03:38",34948.000,"cc",28340.369,6.00,6,0.100,29132.000,0.200,4270.000,0.300,884.000,0.500,552.000,1.000,110.000,5.000,0
"03/06/08","06:03:44",34904.000,"cc",28305.982,6.00,6,0.100,29140.000,0.200,4162.000,0.300,906.000,0.500,589.000,1.000,107.000,5.000,0
"03/06/08","06:03:50",34705.000,"cc",28308.891,6.00,6,0.100,29108.000,0.200,4118.000,0.300,883.000,0.500,504.000,1.000,92.000,5.000,0
"03/06/08","06:03:56",35133.000,"cc",28285.824,6.00,6,0.100,29434.000,0.200,4247.000,0.300,838.000,0.500,525.000,1.000,89.000,5.000,0
"03/06/08","06:04:02",35088.000,"cc",28317.768,6.00,6,0.100,29297.000,0.200,4229.000,0.300,904.000,0.500,566.000,1.000,92.000,5.000,0
"03/06/08","06:04:08",34878.000,"cc",28372.168,6.00,6,0.100,29268.000,0.200,4179.000,0.300,870.000,0.500,486.000,1.000,75.000,5.000,0
"03/06/08","06:04:14",35116.000,"cc",28256.289,6.00,6,0.100,29447.000,0.200,4121.000,0.300,898.000,0.500,560.000,1.000,90.000,5.000,0
"03/06/08","06:04:20",35237.000,"cc",28341.440,6.00,6,0.100,29521.000,0.200,4168.000,0.300,905.000,0.500,556.000,1.000,87.000,5.000,0
"03/06/08","06:04:26",35081.000,"cc",28285.680,6.00,6,0.100,29383.000,0.200,4141.000,0.300,851.000,0.500,616.000,1.000,90.000,5.000,0
"03/06/08","06:04:32",34572.000,"cc",28351.797,6.00,6,0.100,29068.000,0.200,4113.000,0.300,803.000,0.500,513.000,1.000,75.000,5.000,0
"03/06/08","06:04:38",34981.000,"cc",28338.600,6.00,6,0.100,29158.000,0.200,4322.000,0.300,871.000,0.500,557.000,1.000,73.000,5.000,0
"03/06/08","06:04:44",34809.000,"cc",28323.746,6.00,6,0.100,29280.000,0.200,4089.000,0.300,856.000,0.500,523.000,1.000,61.000,5.000,0
"03/06/08","06:04:50",34872.000,"cc",28329.125,6.00,6,0.100,29386.000,0.200,4117.000,0.300,823.000,0.500,476.000,1.000,70.000,5.000,0
"03/06/08","06:04:56",34612.000,"cc",28316.775,6.00,6,0.100,29192.000,0.200,4040.000,0.300,852.000,0.500,474.000,1.000,54.000,5.000,0
"03/06/08","06:05:02",35108.000,"cc",28330.262,6.00,6,0.100,29498.000,0.200,4173.000,0.300,880.000,0.500,485.000,1.000,72.000,5.000,0
"03/06/08","06:05:08",35191.000,"cc",28288.711,6.00,6,0.100,29591.000,0.200,4210.000,0.300,851.000,0.500,458.000,1.000,81.000,5.000,0
"03/06/08","06:05:14",34942.000,"cc",28303.773,6.00,6,0.100,29300.000,0.200,4259.000,0.300,876.000,0.500,455.000,1.000,52.000,5.000,0
"03/06/08","06:05:20",35728.000,"cc",28320.318,6.00,6,0.100,29665.000,0.200,4448.000,0.300,985.000,0.500,527.000,1.000,103.000,5.000,0
"03/06/08","06:05:26",36306.000,"cc",28362.178,6.00,6,0.100,29954.000,0.200,4594.000,0.300,1051.000,0.500,616.000,1.000,91.000,5.000,0
"03/06/08","06:05:32",35256.000,"cc",28311.822,6.00,6,0.100,29658.000,0.200,4336.000,0.300,801.000,0.500,416.000,1.000,45.000,5.000,0
"03/06/08","06:05:38",35158.000,"cc",28298.119,6.00,6,0.100,29676.000,0.200,4211.000,0.300,811.000,0.500,429.000,1.000,31.000,5.000,0
"03/06/08","06:05:44",36582.000,"cc",28302.002,6.00,6,0.100,30239.000,0.200,4526.000,0.300,1079.000,0.500,629.000,1.000,109.000,5.000,0
"03/06/08","06:05:50",35627.000,"cc",28344.322,6.00,6,0.100,30097.000,0.200,4139.000,0.300,868.000,0.500,460.000,1.000,63.000,5.000,0
"03/06/08","06:05:56",35111.000,"cc",28336.606,6.00,6,0.100,29564.000,0.200,4204.000,0.300,865.000,0.500,420.000,1.000,58.000,5.000,0
"03/06/08","06:06:02",35261.000,"cc",28260.404,6.00,6,0.100,29665.000,0.200,4176.000,0.300,896.000,0.500,462.000,1.000,62.000,5.000,0
"03/06/08","06:06:08",35007.000,"cc",28306.342,6.00,6,0.100,29351.000,0.200,4275.000,0.300,864.000,0.500,464.000,1.000,53.000,5.000,0
"03/06/08","06:06:14",34898.000,"cc",28324.463,6.00,6,0.100,29463.000,0.200,4163.000,0.300,810.000,0.500,421.000,1.000,41.000,5.000,0
"03/06/08","06:06:20",35076.000,"cc",28284.354,6.00,6,0.100,29513.000,0.200,4166.000,0.300,858.000,0.500,488.000,1.000,51.000,5.000,0
"03/06/08","06:06:26",34920.000,"cc",28271.424,6.00,6,0.100,29399.000,0.200,4129.000,0.300,855.000,0.500,457.000,1.000,80.000,5.000,0
"03/06/08","06:06:32",34935.000,"cc",28261.029,6.00,6,0.100,29572.000,0.200,4086.000,0.300,841.000,0.500,388.000,1.000,48.000,5.000,0
"03/06/08","06:06:38",34985.000,"cc",28342.992,6.00,6,0.100,29601.000,0.200,4053.000,0.300,850.000,0.500,431.000,1.000,50.000,5.000,0
"03/06/08","06:06:44",35020.000,"cc",28411.225,6.00,6,0.100,29520.000,0.200,4147.000,0.300,846.000,0.500,460.000,1.000,47.000,5.000,0
"03/06/08","06:06:50",34624.000,"cc",28271.004,6.00,6,0.100,29425.000,0.200,4065.000,0.300,750.000,0.500,352.000,1.000,32.000,5.000,0
"03/06/08","06:06:56",34506.000,"cc",28301.107,6.00,6,0.100,29295.000,0.200,4011.000,0.300,795.000,0.500,367.000,1.000,38.000,5.000,0
"03/06/08","06:07:02",35362.000,"cc",28328.875,6.00,6,0.100,29923.000,0.200,4193.000,0.300,841.000,0.500,355.000,1.000,50.000,5.000,0
"03/06/08","06:07:08",34580.000,"cc",28310.152,6.00,6,0.100,29343.000,0.200,4089.000,0.300,810.000,0.500,313.000,1.000,25.000,5.000,0
"03/06/08","06:07:14",34336.000,"cc",28282.523,6.00,6,0.100,28999.000,0.200,4063.000,0.300,836.000,0.500,384.000,1.000,54.000,5.000,0
"03/06/08","06:07:20",35042.000,"cc",28239.545,6.00,6,0.100,29614.000,0.200,4160.000,0.300,838.000,0.500,371.000,1.000,59.000,5.000,0
"03/06/08","06:07:26",34656.000,"cc",28317.283,6.00,6,0.100,29391.000,0.200,4065.000,0.300,832.000,0.500,338.000,1.000,30.000,5.000,0
"03/06/08","06:07:32",34827.000,"cc",28355.690,6.00,6,0.100,29539.000,0.200,4115.000,0.300,808.000,0.500,332.000,1.000,33.000,5.000,0
"03/06/08","06:07:38",34689.000,"cc",28292.779,6.00,6,0.100,29563.000,0.200,3966.000,0.300,805.000,0.500,326.000,1.000,29.000,5.000,0
"03/06/08","06:07:44",35117.000,"cc",28371.734,6.00,6,0.100,29668.000,0.200,4175.000,0.300,789.000,0.500,425.000,1.000,60.000,5.000,0
"03/06/08","06:07:50",34741.000,"cc",28332.440,6.00,6,0.100,29573.000,0.200,4132.000,0.300,691.000,0.500,298.000,1.000,47.000,5.000,0
"03/06/08","06:07:56",34533.000,"cc",28267.576,6.00,6,0.100,29475.000,0.200,3979.000,0.300,748.000,0.500,312.000,1.000,19.000,5.000,0
"03/06/08","06:08:02",35016.000,"cc",28394.838,6.00,6,0.100,29780.000,0.200,4124.000,0.300,801.000,0.500,292.000,1.000,19.000,5.000,0
"03/06/08","06:08:08",34430.000,"cc",28343.231,6.00,6,0.100,29450.000,0.200,3916.000,0.300,747.000,0.500,298.000,1.000,19.000,5.000,0
"03/06/08","06:08:14",33968.000,"cc",28321.772,6.00,6,0.100,29078.000,0.200,3908.000,0.300,730.000,0.500,239.000,1.000,13.000,5.000,0
"03/06/08","06:08:20",34026.000,"cc",28330.359,6.00,6,0.100,29186.000,0.200,3911.000,0.300,714.000,0.500,209.000,1.000,6.000,5.000,0
"03/06/08","06:08:26",34323.000,"cc",28292.119,6.00,6,0.100,29357.000,0.200,3967.000,0.300,720.000,0.500,260.000,1.000,19.000,5.000,0
"03/06/08","06:08:32",34596.000,"cc",28355.740,6.00,6,0.100,29514.000,0.200,4083.000,0.300,725.000,0.500,247.000,1.000,27.000,5.000,0
"03/06/08","06:08:38",34643.000,"cc",28326.170,6.00,6,0.100,29512.000,0.200,4024.000,0.300,757.000,0.500,321.000,1.000,29.000,5.000,0
"03/06/08","06:08:44",34099.000,"cc",28359.988,6.00,6,0.100,29154.000,0.200,3986.000,0.300,707.000,0.500,226.000,1.000,26.000,5.000,0
"03/06/08","06:08:50",34659.000,"cc",28271.510,6.00,6,0.100,29780.000,0.200,3895.000,0.300,727.000,0.500,236.000,1.000,21.000,5.000,0
"03/06/08","06:08:56",34483.000,"cc",28323.272,6.00,6,0.100,29522.000,0.200,3952.000,0.300,709.000,0.500,266.000,1.000,34.000,5.000,0
"03/06/08","06:09:02",34214.000,"cc",28343.395,6.00,6,0.100,29220.000,0.200,3975.000,0.300,709.000,0.500,279.000,1.000,31.000,5.000,0
"03/06/08","06:09:08",34542.000,"cc",28324.668,6.00,6,0.100,29728.000,0.200,3828.000,0.300,733.000,0.500,237.000,1.000,16.000,5.000,0
"03/06/08","06:09:14",34781.000,"cc",28301.072,6.00,6,0.100,29638.000,0.200,4104.000,0.300,735.000,0.500,279.000,1.000,25.000,5.000,0
"03/06/08","06:09:20",34825.000,"cc",28299.693,6.00,6,0.100,29645.000,0.200,4035.000,0.300,798.000,0.500,310.000,1.000,37.000,5.000,0
"03/06/08","06:09:26",34464.000,"cc",28288.691,6.00,6,0.100,29677.000,0.200,3828.000,0.300,658.000,0.500,269.000,1.000,32.000,5.000,0
"03/06/08","06:09:32",34688.000,"cc",28361.264,6.00,6,0.100,29556.000,0.200,4045.000,0.300,745.000,0.500,303.000,1.000,39.000,5.000,0
"03/06/08","06:09:38",34480.000,"cc",28306.410,6.00,6,0.100,29550.000,0.200,3905.000,0.300,714.000,0.500,288.000,1.000,23.000,5.000,0
"03/06/08","06:09:44",34141.000,"cc",28378.533,6.00,6,0.100,29353.000,0.200,3914.000,0.300,650.000,0.500,209.000,1.000,15.000,5.000,0
"03/06/08","06:09:50",34559.000,"cc",28276.315,6.00,6,0.100,29370.000,0.200,3983.000,0.300,815.000,0.500,347.000,1.000,44.000,5.000,0
"03/06/08","06:09:56",34763.000,"cc",28280.897,6.00,6,0.100,29621.000,0.200,4066.000,0.300,750.000,0.500,284.000,1.000,42.000,5.000,0
"03/06/08","06:10:02",34797.000,"cc",28299.801,6.00,6,0.100,29946.000,0.200,3869.000,0.300,718.000,0.500,245.000,1.000,19.000,5.000,0
"03/06/08","06:10:08",34338.000,"cc",28337.861,6.00,6,0.100,29507.000,0.200,3908.000,0.300,658.000,0.500,245.000,1.000,20.000,5.000,0
"03/06/08","06:10:14",34242.000,"cc",28334.961,6.00,6,0.100,29373.000,0.200,3916.000,0.300,671.000,0.500,260.000,1.000,22.000,5.000,0
"03/06/08","06:10:20",34310.000,"cc",28307.949,6.00,6,0.100,29498.000,0.200,3903.000,0.300,636.000,0.500,247.000,1.000,26.000,5.000,0
"03/06/08","06:10:26",34160.000,"cc",28310.145,6.00,6,0.100,29284.000,0.200,3845.000,0.300,748.000,0.500,262.000,1.000,21.000,5.000,0
"03/06/08","06:10:32",34556.000,"cc",28348.738,6.00,6,0.100,29602.000,0.200,3963.000,0.300,691.000,0.500,278.000,1.000,22.000,5.000,0
"03/06/08","06:10:38",34617.000,"cc",28290.445,6.00,6,0.100,29544.000,0.200,4060.000,0.300,725.000,0.500,265.000,1.000,23.000,5.000,0
"03/06/08","06:10:44",34578.000,"cc",28305.641,6.00,6,0.100,29678.000,0.200,3957.000,0.300,676.000,0.500,242.000,1.000,25.000,5.000,0
"03/06/08","06:10:50",34487.000,"cc",28321.783,6.00,6,0.100,29575.000,0.200,3969.000,0.300,678.000,0.500,243.000,1.000,22.000,5.000,0
"03/06/08","06:10:56",34295.000,"cc",28315.691,6.00,6,0.100,29424.000,0.200,3937.000,0.300,691.000,0.500,226.000,1.000,17.000,5.000,0
"03/06/08","06:11:02",34889.000,"cc",28322.445,6.00,6,0.100,29813.000,0.200,3975.000,0.300,749.000,0.500,310.000,1.000,42.000,5.000,0
"03/06/08","06:11:08",34470.000,"cc",28359.432,6.00,6,0.100,29633.000,0.200,3965.000,0.300,660.000,0.500,191.000,1.000,21.000,5.000,0
"03/06/08","06:11:14",33863.000,"cc",28331.299,6.00,6,0.100,29239.000,0.200,3765.000,0.300,633.000,0.500,210.000,1.000,16.000,5.000,0
"03/06/08","06:11:20",34291.000,"cc",28346.635,6.00,6,0.100,29593.000,0.200,3779.000,0.300,663.000,0.500,219.000,1.000,37.000,5.000,0
"03/06/08","06:11:26",34335.000,"cc",28243.184,6.00,6,0.100,29516.000,0.200,3846.000,0.300,728.000,0.500,224.000,1.000,21.000,5.000,0
"03/06/08","06:11:32",34340.000,"cc",28306.240,6.00,6,0.100,29443.000,0.200,3916.000,0.300,670.000,0.500,280.000,1.000,31.000,5.000,0
"03/06/08","06:11:38",34747.000,"cc",28328.799,6.00,6,0.100,29738.000,0.200,4013.000,0.300,709.000,0.500,264.000,1.000,23.000,5.000,0
"03/06/08","06:11:44",34758.000,"cc",28336.502,6.00,6,0.100,29772.000,0.200,3943.000,0.300,750.000,0.500,264.000,1.000,29.000,5.000,0
"03/06/08","06:11:50",34287.000,"cc",28278.043,6.00,6,0.100,29495.000,0.200,3884.000,0.300,643.000,0.500,237.000,1.000,28.000,5.000,0
"03/06/08","06:11:56",34337.000,"cc",28345.078,6.00,6,0.100,29469.000,0.200,3913.000,0.300,672.000,0.500,254.000,1.000,29.000,5.000,0
"03/06/08","06:12:02",34057.000,"cc",28327.428,6.00,6,0.100,29453.000,0.200,3751.000,0.300,624.000,0.500,210.000,1.000,19.000,5.000,0
"03/06/08","06:12:08",35069.000,"cc",28324.754,6.00,6,0.100,29970.000,0.200,3941.000,0.300,781.000,0.500,340.000,1.000,37.000,5.000,0
"03/06/08","06:12:14",34600.000,"cc",28287.828,6.00,6,0.100,29956.000,0.200,3810.000,0.300,619.000,0.500,206.000,1.000,9.000,5.000,0
"03/06/08","06:12:20",35031.000,"cc",28288.443,6.00,6,0.100,29961.000,0.200,3932.000,0.300,750.000,0.500,342.000,1.000,46.000,5.000,0
"03/06/08","06:12:26",34214.000,"cc",28375.309,6.00,6,0.100,29592.000,0.200,3823.000,0.300,615.000,0.500,168.000,1.000,16.000,5.000,0
"03/06/08","06:12:32",34608.000,"cc",28294.193,6.00,6,0.100,29956.000,0.200,3808.000,0.300,595.000,0.500,224.000,1.000,25.000,5.000,0
"03/06/08","06:12:38",34570.000,"cc",28256.373,6.00,6,0.100,29736.000,0.200,3802.000,0.300,721.000,0.500,287.000,1.000,24.000,5.000,0
"03/06/08","06:12:44",34858.000,"cc",28357.838,6.00,6,0.100,29805.000,0.200,3919.000,0.300,794.000,0.500,297.000,1.000,43.000,5.000,0
"03/06/08","06:12:50",34322.000,"cc",28326.502,6.00,6,0.100,29622.000,0.200,3832.000,0.300,623.000,0.500,223.000,1.000,22.000,5.000,0
"03/06/08","06:12:56",34783.000,"cc",28321.717,6.00,6,0.100,29822.000,0.200,3998.000,0.300,684.000,0.500,246.000,1.000,33.000,5.000,0
"03/06/08","06:13:02",35469.000,"cc",28352.598,6.00,6,0.100,30333.000,0.200,4056.000,0.300,746.000,0.500,301.000,1.000,33.000,5.000,0
"03/06/08","06:13:08",36085.000,"cc",28279.361,6.00,6,0.100,30586.000,0.200,4276.000,0.300,876.000,0.500,310.000,1.000,37.000,5.000,0
"03/06/08","06:13:14",35163.000,"cc",28301.098,6.00,6,0.100,30161.000,0.200,3958.000,0.300,739.000,0.500,281.000,1.000,24.000,5.000,0
"03/06/08","06:13:20",34665.000,"cc",28340.133,6.00,6,0.100,29875.000,0.200,3841.000,0.300,658.000,0.500,262.000,1.000,29.000,5.000,0
"03/06/08","06:13:26",36837.000,"cc",28322.086,6.00,6,0.100,31046.000,0.200,4463.000,0.300,935.000,0.500,355.000,1.000,38.000,5.000,0
"03/06/08","06:13:32",35936.000,"cc",28339.307,6.00,6,0.100,30494.000,0.200,4183.000,0.300,847.000,0.500,363.000,1.000,49.000,5.000,0
"03/06/08","06:13:38",34938.000,"cc",28321.658,6.00,6,0.100,29904.000,0.200,3939.000,0.300,774.000,0.500,291.000,1.000,30.000,5.000,0
"03/06/08","06:13:44",34161.000,"cc",28293.338,6.00,6,0.100,29585.000,0.200,3752.000,0.300,599.000,0.500,209.000,1.000,16.000,5.000,0
"03/06/08","06:13:50",34984.000,"cc",28304.324,6.00,6,0.100,30157.000,0.200,3859.000,0.300,687.000,0.500,249.000,1.000,32.000,5.000,0
"03/06/08","06:13:56",34481.000,"cc",28284.053,6.00,6,0.100,29847.000,0.200,3800.000,0.300,601.000,0.500,205.000,1.000,28.000,5.000,0
"03/06/08","06:14:02",34700.000,"cc",28342.760,6.00,6,0.100,29946.000,0.200,3758.000,0.300,688.000,0.500,274.000,1.000,34.000,5.000,0
"03/06/08","06:14:08",33509.000,"cc",28337.051,6.00,6,0.100,29358.000,0.200,3491.000,0.300,503.000,0.500,151.000,1.000,6.000,5.000,0
"03/06/08","06:14:14",33833.000,"cc",28276.352,6.00,6,0.100,29496.000,0.200,3630.000,0.300,540.000,0.500,145.000,1.000,22.000,5.000,0
"03/06/08","06:14:20",34603.000,"cc",28330.535,6.00,6,0.100,30128.000,0.200,3663.000,0.300,582.000,0.500,214.000,1.000,16.000,5.000,0
"03/06/08","06:14:26",35168.000,"cc",28368.441,6.00,6,0.100,30317.000,0.200,3750.000,0.300,766.000,0.500,312.000,1.000,23.000,5.000,0
"03/06/08","06:14:32",34415.000,"cc",28305.059,6.00,6,0.100,29816.000,0.200,3717.000,0.300,611.000,0.500,241.000,1.000,30.000,5.000,0
"03/06/08","06:14:38",34810.000,"cc",28341.078,6.00,6,0.100,30110.000,0.200,3699.000,0.300,673.000,0.500,300.000,1.000,28.000,5.000,0
"03/06/08","06:14:44",34393.000,"cc",28276.166,6.00,6,0.100,29865.000,0.200,3791.000,0.300,576.000,0.500,147.000,1.000,14.000,5.000,0
"03/06/08","06:14:50",34225.000,"cc",28330.977,6.00,6,0.100,29704.000,0.200,3653.000,0.300,607.000,0.500,238.000,1.000,23.000,5.000,0
"03/06/08","06:14:56",35017.000,"cc",28334.324,6.00,6,0.100,30055.000,0.200,3875.000,0.300,767.000,0.500,290.000,1.000,30.000,5.000,0
"03/06/08","06:15:02",33552.000,"cc",28305.117,6.00,6,0.100,29385.000,0.200,3547.000,0.300,492.000,0.500,116.000,1.000,12.000,5.000,0
"03/06/08","06:15:08",33924.000,"cc",28346.014,6.00,6,0.100,29693.000,0.200,3569.000,0.300,504.000,0.500,152.000,1.000,6.000,5.000,0
"03/06/08","06:15:14",34561.000,"cc",28283.250,6.00,6,0.100,29984.000,0.200,3643.000,0.300,636.000,0.500,264.000,1.000,34.000,5.000,0
"03/06/08","06:15:20",34426.000,"cc",28327.504,6.00,6,0.100,29839.000,0.200,3757.000,0.300,587.000,0.500,218.000,1.000,25.000,5.000,0
"03/06/08","06:15:26",33762.000,"cc",28266.766,6.00,6,0.100,29409.000,0.200,3570.000,0.300,577.000,0.500,188.000,1.000,18.000,5.000,0
"03/06/08","06:15:32",34144.000,"cc",28314.447,6.00,6,0.100,29888.000,0.200,3517.000,0.300,553.000,0.500,175.000,1.000,11.000,5.000,0
"03/06/08","06:15:38",34018.000,"cc",28377.400,6.00,6,0.100,29588.000,0.200,3573.000,0.300,610.000,0.500,226.000,1.000,21.000,5.000,0
"03/06/08","06:15:44",34119.000,"cc",28341.748,6.00,6,0.100,29876.000,0.200,3458.000,0.300,566.000,0.500,193.000,1.000,26.000,5.000,0
"03/06/08","06:15:50",34394.000,"cc",28290.756,6.00,6,0.100,29889.000,0.200,3511.000,0.300,684.000,0.500,274.000,1.000,36.000,5.000,0
"03/06/08","06:15:56",34483.000,"cc",28237.879,6.00,6,0.100,29986.000,0.200,3531.000,0.300,627.000,0.500,297.000,1.000,42.000,5.000,0
"03/06/08","06:16:02",34165.000,"cc",28324.766,6.00,6,0.100,29968.000,0.200,3453.000,0.300,552.000,0.500,180.000,1.000,12.000,5.000,0
"03/06/08","06:16:08",33993.000,"cc",28360.332,6.00,6,0.100,29836.000,0.200,3455.000,0.300,541.000,0.500,151.000,1.000,10.000,5.000,0
"03/06/08","06:16:14",34857.000,"cc",28314.412,6.00,6,0.100,30271.000,0.200,3681.000,0.300,599.000,0.500,279.000,1.000,27.000,5.000,0
"03/06/08","06:16:20",34265.000,"cc",28301.471,6.00,6,0.100,30217.000,0.200,3423.000,0.300,480.000,0.500,136.000,1.000,9.000,5.000,0
"03/06/08","06:16:26",33845.000,"cc",28290.889,6.00,6,0.100,29677.000,0.200,3420.000,0.300,554.000,0.500,182.000,1.000,12.000,5.000,0
"03/06/08","06:16:32",34327.000,"cc",28377.643,6.00,6,0.100,30002.000,0.200,3519.000,0.300,574.000,0.500,209.000,1.000,23.000,5.000,0
"03/06/08","06:16:38",34704.000,"cc",28303.613,6.00,6,0.100,30142.000,0.200,3645.000,0.300,613.000,0.500,271.000,1.000,33.000,5.000,0
"03/06/08","06:16:44",35403.000,"cc",28268.647,6.00,6,0.100,30790.000,0.200,3619.000,0.300,693.000,0.500,273.000,1.000,28.000,5.000,0